[keps] orb09078.amsat

Ray Hoad r.hoad at att.net
Thu Mar 19 18:17:12 PDT 2009


SB KEPS @ AMSAT  $ORB09078.O
Orbital Elements  09078.OSCAR

HR AMSAT ORBITAL ELEMENTS FOR OSCAR SATELLITES
FROM WA5QGD FORT WORTH,TX March 19, 2009
Send Subscribe/unsubscribe to KEPS at 
http://www.amsat.org/mailman/listinfo/keps
BID: ORB09078.O
TO ALL RADIO AMATEURS BT

Satellite: AO-07
Catalog number: 07530
Epoch time:      09078.46621041
Element set:     430
Inclination:      101.4361 deg
RA of node:       106.4097 deg
Eccentricity:    0.0012073
Arg of perigee:   084.6965 deg
Mean anomaly:     275.5486 deg
Mean motion:   12.53575530 rev/day
Decay rate:       -2.7e-07 rev/day^2
Epoch rev:           57147
Checksum:              289

Satellite: AO-10
Catalog number: 14129
Epoch time:      09078.38876633
Element set:     633
Inclination:      025.9678 deg
RA of node:       166.1397 deg
Eccentricity:    0.5982084
Arg of perigee:   207.0833 deg
Mean anomaly:     102.0602 deg
Mean motion:   02.05870136 rev/day
Decay rate:      -1.66e-06 rev/day^2
Epoch rev:           19377
Checksum:              321

Satellite: UO-11
Catalog number: 14781
Epoch time:      09078.68319606
Element set:     914
Inclination:      098.1178 deg
RA of node:       122.2941 deg
Eccentricity:    0.0008004
Arg of perigee:   267.0133 deg
Mean anomaly:     093.0181 deg
Mean motion:   14.79699665 rev/day
Decay rate:        3.1e-07 rev/day^2
Epoch rev:           34459
Checksum:              313

Satellite: RS-15
Catalog number: 23439
Epoch time:      09077.95783704
Element set:    0216
Inclination:      064.8131 deg
RA of node:       050.7225 deg
Eccentricity:    0.0146332
Arg of perigee:   069.0600 deg
Mean anomaly:     292.5909 deg
Mean motion:   11.27553296 rev/day
Decay rate:       -3.9e-07 rev/day^2
Epoch rev:           58594
Checksum:              318

Satellite: FO-29
Catalog number: 24278
Epoch time:      09077.70657082
Element set:    0006
Inclination:      098.5666 deg
RA of node:       323.8444 deg
Eccentricity:    0.0350051
Arg of perigee:   224.7058 deg
Mean anomaly:     132.5372 deg
Mean motion:   13.52942687 rev/day
Decay rate:        4.8e-07 rev/day^2
Epoch rev:           62151
Checksum:              316

Satellite: SO-33
Catalog number: 25509
Epoch time:      09077.67828858
Element set:    0412
Inclination:      031.4343 deg
RA of node:       204.2776 deg
Eccentricity:    0.0355404
Arg of perigee:   267.0898 deg
Mean anomaly:     088.8992 deg
Mean motion:   14.28245816 rev/day
Decay rate:       -6.2e-07 rev/day^2
Epoch rev:           54288
Checksum:              348

Satellite: AO-40
Catalog number: 26609
Epoch time:      09074.71118047
Element set:     202
Inclination:      008.9500 deg
RA of node:       028.2557 deg
Eccentricity:    0.7956187
Arg of perigee:   184.9526 deg
Mean anomaly:     154.0854 deg
Mean motion:   01.25584144 rev/day
Decay rate:      -2.70e-06 rev/day^2
Epoch rev:            3845
Checksum:              310

Satellite: RS-22
Catalog number: 27939
Epoch time:      09077.66468735
Element set:     742
Inclination:      097.9582 deg
RA of node:       315.7622 deg
Eccentricity:    0.0014664
Arg of perigee:   060.0521 deg
Mean anomaly:     300.2139 deg
Mean motion:   14.63301118 rev/day
Decay rate:       -3.0e-08 rev/day^2
Epoch rev:           29233
Checksum:              297

Satellite: VO-52
Catalog number: 28650
Epoch time:      09077.68498125
Element set:    0182
Inclination:      097.7508 deg
RA of node:       142.2189 deg
Eccentricity:    0.0026495
Arg of perigee:   327.3426 deg
Mean anomaly:     032.6171 deg
Mean motion:   14.81564318 rev/day
Decay rate:       4.21e-06 rev/day^2
Epoch rev:           20924
Checksum:              316

Satellite: PO-63
Catalog number: 29712
Epoch time:      09078.80469464
Element set:     325
Inclination:      097.8383 deg
RA of node:       137.3132 deg
Eccentricity:    0.0013617
Arg of perigee:   201.7564 deg
Mean anomaly:     158.3080 deg
Mean motion:   14.80475353 rev/day
Decay rate:       5.46e-06 rev/day^2
Epoch rev:           11824
Checksum:              312

/EX
SB KEPS @ AMSAT  $ORB09078.D
Orbital Elements  09078.MICROS

HR AMSAT ORBITAL ELEMENTS FOR THE MICROSATS
FROM WA5QGD FORT WORTH,TX March 19, 2009
Send Subscribe/unsubscribe to KEPS at 
http://www.amsat.org/mailman/listinfo/keps
BID: ORB09078.D
TO ALL RADIO AMATEURS BT

Satellite: AO-16
Catalog number: 20439
Epoch time:      09078.47639084
Element set:     560
Inclination:      098.2696 deg
RA of node:       051.0050 deg
Eccentricity:    0.0011908
Arg of perigee:   077.9788 deg
Mean anomaly:     282.2735 deg
Mean motion:   14.31818480 rev/day
Decay rate:       -8.0e-08 rev/day^2
Epoch rev:              31
Checksum:              309

Satellite: LO-19
Catalog number: 20442
Epoch time:      09077.77951700
Element set:     481
Inclination:      098.2333 deg
RA of node:       057.9485 deg
Eccentricity:    0.0012923
Arg of perigee:   076.2554 deg
Mean anomaly:     284.0036 deg
Mean motion:   14.32054590 rev/day
Decay rate:       -5.1e-07 rev/day^2
Epoch rev:              37
Checksum:              290

Satellite: AO-27
Catalog number: 22825
Epoch time:      09077.83767104
Element set:     201
Inclination:      098.4268 deg
RA of node:       034.1522 deg
Eccentricity:    0.0008350
Arg of perigee:   164.7041 deg
Mean anomaly:     195.4402 deg
Mean motion:   14.29260795 rev/day
Decay rate:        1.1e-07 rev/day^2
Epoch rev:           80700
Checksum:              281

Satellite: IO-26
Catalog number: 22826
Epoch time:      09077.84375668
Element set:     922
Inclination:      098.4205 deg
RA of node:       034.9464 deg
Eccentricity:    0.0009068
Arg of perigee:   160.9389 deg
Mean anomaly:     199.2129 deg
Mean motion:   14.29511817 rev/day
Decay rate:       -4.0e-08 rev/day^2
Epoch rev:           80710
Checksum:              333

Satellite: GO-32
Catalog number: 25397
Epoch time:      09078.57252621
Element set:     847
Inclination:      098.3351 deg
RA of node:       105.6810 deg
Eccentricity:    0.0001802
Arg of perigee:   125.5287 deg
Mean anomaly:     234.6061 deg
Mean motion:   14.23155773 rev/day
Decay rate:      -1.15e-06 rev/day^2
Epoch rev:           55538
Checksum:              299

Satellite: NO-44
Catalog number: 26931
Epoch time:      09078.73215295
Element set:     124
Inclination:      067.0537 deg
RA of node:       294.8053 deg
Eccentricity:    0.0005113
Arg of perigee:   260.9985 deg
Mean anomaly:     099.0511 deg
Mean motion:   14.29551084 rev/day
Decay rate:        5.4e-07 rev/day^2
Epoch rev:           38979
Checksum:              322

Satellite: SO-50
Catalog number: 27607
Epoch time:      09078.74649254
Element set:     840
Inclination:      064.5599 deg
RA of node:       296.7364 deg
Eccentricity:    0.0076256
Arg of perigee:   224.9508 deg
Mean anomaly:     134.5378 deg
Mean motion:   14.71420702 rev/day
Decay rate:       -2.6e-07 rev/day^2
Epoch rev:           33551
Checksum:              331

Satellite: CO-55
Catalog number: 27844
Epoch time:      09077.55907354
Element set:    0537
Inclination:      098.7162 deg
RA of node:       087.9978 deg
Eccentricity:    0.0010781
Arg of perigee:   048.1029 deg
Mean anomaly:     312.1074 deg
Mean motion:   14.20627007 rev/day
Decay rate:        2.4e-07 rev/day^2
Epoch rev:           29639
Checksum:              326

Satellite: CO-57
Catalog number: 27848
Epoch time:      09077.52401834
Element set:     482
Inclination:      098.7169 deg
RA of node:       087.0249 deg
Eccentricity:    0.0010582
Arg of perigee:   050.1535 deg
Mean anomaly:     310.0550 deg
Mean motion:   14.20430551 rev/day
Decay rate:        3.0e-08 rev/day^2
Epoch rev:           29635
Checksum:              289

Satellite: AO-51
Catalog number: 28375
Epoch time:      09077.74351323
Element set:     342
Inclination:      098.0562 deg
RA of node:       092.6078 deg
Eccentricity:    0.0085180
Arg of perigee:   039.8411 deg
Mean anomaly:     320.8984 deg
Mean motion:   14.40635861 rev/day
Decay rate:        3.0e-08 rev/day^2
Epoch rev:           24793
Checksum:              313

Satellite: CO-56
Catalog number: 28941
Epoch time:      09078.46271960
Element set:     913
Inclination:      098.1324 deg
RA of node:       236.7995 deg
Eccentricity:    0.0110214
Arg of perigee:   109.5013 deg
Mean anomaly:     251.8241 deg
Mean motion:   15.75161494 rev/day
Decay rate:     5.4268e-04 rev/day^2
Epoch rev:           17308
Checksum:              321

Satellite: CP3
Catalog number: 31128
Epoch time:      09077.19062970
Element set:     582
Inclination:      097.9981 deg
RA of node:       134.4916 deg
Eccentricity:    0.0102444
Arg of perigee:   206.6689 deg
Mean anomaly:     152.9233 deg
Mean motion:   14.52025982 rev/day
Decay rate:       -4.7e-07 rev/day^2
Epoch rev:           10169
Checksum:              315

Satellite: CP4
Catalog number: 31132
Epoch time:      09078.41464424
Element set:     561
Inclination:      098.0052 deg
RA of node:       139.2103 deg
Eccentricity:    0.0085134
Arg of perigee:   192.3033 deg
Mean anomaly:     167.6096 deg
Mean motion:   14.55191416 rev/day
Decay rate:       2.59e-06 rev/day^2
Epoch rev:           10197
Checksum:              279

Satellite: CO-65
Catalog number: 32785
Epoch time:      09077.21424534
Element set:    0318
Inclination:      097.9564 deg
RA of node:       141.8947 deg
Eccentricity:    0.0014672
Arg of perigee:   331.1911 deg
Mean anomaly:     028.8481 deg
Mean motion:   14.81459250 rev/day
Decay rate:       3.67e-06 rev/day^2
Epoch rev:           04797
Checksum:              332

/EX
SB KEPS @ AMSAT  $ORB09078.W
Orbital Elements  09078.WEATHER

HR AMSAT ORBITAL ELEMENTS FOR WEATHER SATELLITES
FROM WA5QGD FORT WORTH,TX March 19, 2009
Send Subscribe/unsubscribe to KEPS at 
http://www.amsat.org/mailman/listinfo/keps
BID: ORB09078.W
TO ALL RADIO AMATEURS BT

